Regional Weather Roundup
Issued by NWS

Home | Current Version | Previous Version | Text Only | Print | Product List | Glossary Off
Versions: 1 2 3 4 5 6 7 8 9 10 11 12 13 14 15 16 17 18 19 20 21 22 23 24 25 26 27 28 29 30 31 32 33 34 35 36 37 38 39 40 41 42 43 44 45 46 47 48 49 50

000
ASUS43 KLOT 231000
RWRIL

ILLINOIS REGIONAL WEATHER ROUNDUP
NATIONAL WEATHER SERVICE CHICAGO/ROMEOVILLE IL
500 AM CDT SAT AUG 23 2014

NOTE: "FAIR" INDICATES FEW OR NO CLOUDS BELOW 12,000 FEET WITH NO
SIGNIFICANT WEATHER AND/OR OBSTRUCTIONS TO VISIBILITY.

* THESE STATIONS ARE NOT UNDER NWS QUALITY CONTROL. THEY ALSO MAY NOT
  REPORT WEATHER SUCH AS PRECIPITATION OR FOG.

ILZ001-002-007-009-015-016-024-231100-
NORTHWEST ILLINOIS

CITY           SKY/WX    TMP DP  RH WIND       PRES   REMARKS
MOLINE         MOCLDY    75  73  93 E7        29.93F
STERLING*      CLOUDY    72  70  94 CALM      29.95F
$$

ILZ003-004-008-010-011-017-018-231100-
NORTH CENTRAL ILLINOIS

CITY           SKY/WX    TMP DP  RH WIND       PRES   REMARKS
ROCKFORD       CLOUDY    73  70  90 CALM      29.97F FOG
FREEPORT*      FOG       73  72  96 CALM      29.98F VSB 1/4
ROCHELLE*      MOCLDY    71  69  96 CALM      29.97F FOG
$$

ILZ005-006-012>014-019>023-231100-
NORTHEAST ILLINOIS

CITY           SKY/WX    TMP DP  RH WIND       PRES   REMARKS
CHICAGO-OHARE  CLOUDY    73  69  87 NE6       29.97S FOG
CHICAGO-MIDWAY PTCLDY    77  74  90 E3        29.96F FOG
AURORA         PTCLDY    71  69  93 CALM      29.97S FOG
WAUKEGAN       FOG       70  69  97 NE3       29.98S VSB 1/4
DUPAGE AIRPORT PTCLDY    73  71  93 CALM      29.97S FOG
WHEELING       CLOUDY    73  71  93 CALM      29.99S FOG
NORTHERLY ISL    N/A     73  71  93 N3          N/A
$$

LMZ740>746-231100-
SOUTHERN LAKE MICHIGAN

STATION/POSITION SKY/WX   TEMP    WIND        PRES    VSBY  WAVE
                          AIR SEA DIR/SP/G                  HT/PER
                          (F)     (DEG/KT/KT) (MB)    (MI)  (FT/S)
SOUTHERN BUOY              70 69  100/  8/ 10 1015.0R         1
WAUKEGAN HARBOR            71      40/  4/  4   N/A
HARRISON CRIB              72      20/  3/  5   N/A
BURNHAM HARBOR             72      10/  2/  4   N/A
CALUMET HARBOR             73        CALM     1013.8R
MICHIGAN CITY              74     160/  3/  4   N/A
MICHIGAN CITY 6N           73 72  200/  2/  2   N/A           0
ST. JOSEPH                 73 72   90/  2/  4   N/A           0
$$

ILZ025>027-034>036-040-047-049-050-058-095>099-231100-
WEST-CENTRAL ILLINOIS

CITY           SKY/WX    TMP DP  RH WIND       PRES   REMARKS
QUINCY         CLEAR     76  74  93 SE6       29.91F
MACOMB*        MOCLDY    74  74 100 E3        29.95F FOG
$$

ILZ028>032-037-038-041>044-048-051>054-059>061-231100-
CENTRAL ILLINOIS

CITY           SKY/WX    TMP DP  RH WIND       PRES   REMARKS
DECATUR        PTCLDY    74  72  93 E5        29.95S FOG
PEORIA         CLEAR     76  72  87 CALM      29.94F
SPRINGFIELD    CLEAR     77  75  93 E3        29.93S
TAYLORVILLE    NOT AVBL
$$

ILZ033-039-045-046-055>057-062-063-231100-
EAST-CENTRAL ILLINOIS

CITY           SKY/WX    TMP DP  RH WIND       PRES   REMARKS
CHAMPAIGN      FOG       73  72  96 E5        29.97R VSB 1/4
MATTOON        CLEAR     76  74  93 S5        29.95S FOG
$$

ILZ079-100>102-231100-
SOUTHWEST ILLINOIS

CITY           SKY/WX    TMP DP  RH WIND       PRES   REMARKS
BELLEVILLE     CLEAR     75  75 100 CALM      29.93R FOG
CAHOKIA*       CLEAR     76  74  93 CALM      29.93R
$$

ILZ064>066-069>071-074>076-080>082-084>086-088>090-092>094-231100-
SOUTH-CENTRAL ILLINOIS

CITY           SKY/WX    TMP DP  RH WIND       PRES   REMARKS
CARBONDALE     CLEAR     77  74  90 S3        29.94R
MT. VERNON     PTCLDY    75  72  88 CALM      29.95S
SALEM*         CLEAR     79  77  95 CALM      29.94S FOG     HX  83
$$

ILZ067-068-072-073-078-083-087-091-231100-
SOUTHEAST ILLINOIS

CITY           SKY/WX    TMP DP  RH WIND       PRES   REMARKS
LAWRENCEVILLE  CLOUDY    74  73  97 SE3       29.96S
HARRISBURG*    PTCLDY    76  76 100 CALM      29.96S
ROBINSON*      PTCLDY    75  74  97 CALM      29.96S FOG
$$

ABBREVIATIONS USED IN REMARKS
   TC - TEMPERATURE IN CELSIUS
  WCI - WIND CHILL INDEX
   HX - HEAT INDEX
  VSB - VISIBILITY
$$




USA.gov is the U.S. government's official web portal to all federal, state and local government web resources and services.